カタログに戻る

DELTA 1 DEB

LostUNKNOWN
NORAD 28665·DEBRIS·🇺🇸 United States

打ち上げ Jul 4, 1968 から Vandenberg Space Force Base

Loading…

次のパス (今後24時間)

TLE

古いSource: Space-Track

元期: Apr 27, 2022, 23:22 UTC

1 28665U 68055N   22117.97388513  .00013837  00000-0  12107-1 0  9992
2 28665 120.6356 118.6398 1051442 175.0446 186.1894 12.46065057770818

AllMySatでDELTA 1 DEBをリアルタイム追跡

Download on the App Store